www.pogodaiklimat.ru

Погода и климат >> Архив погоды >> Россия >> Ямало-Ненецкий АО >> Тамбей


ПОГОДА в Тамбее

  • Прогноз погоды в Тамбее
  • Монитор погоды в Тамбее
  • Климат города

АРХИВ ПОГОДЫ в Тамбее

Время (UTC), дата Ветер
(напр.,м/с)
 
Видим.   Явления Облачность Т
(С)
Тd
(С)
f
(%)
Тe
(С)
Тes
(С)
Комфортность P
(гПа)
Po
(гПа)
Тmin
(С)
Tmax
(С)
R
(мм)
R24
(мм)
S
(см)
00 14.09 ЮВ 10
{14}
н/о н/о +3.6 +2.3 -4 -4 998.9 997.9
03 14.09 В 10
{14}
н/о н/о +2.9 +1.9 -4 -4 999.6 998.6
06 14.09 В 9
{14}
н/о н/о +3.4 +1.8 -3 -3 1000.4 999.4
09 14.09 В 9 н/о н/о +4.8 +2.3 -1 -1 1002.0 1001.0
12 14.09 В 9 н/о н/о +5.4 +2.2 -1 -1 1004.2 1003.2
15 14.09 В 8 н/о н/о +5.5 +2.8 -0 -0 1005.8 1004.8
18 14.09 В 7 н/о н/о +4.7 +3.0 -1 -1 1007.1 1006.1
21 14.09 В 5 н/о н/о +4.9 +2.8 0 0 1008.6 1007.6
00 15.09 С 4 н/о н/о +1.7 +2.0 -4 -4 1010.0 1009.0
03 15.09 В 6 н/о н/о +5.2 +3.4 0 0 1011.3 1010.3
06 15.09 СВ 3 н/о н/о +6.1 +3.3 +3 +3 1012.2 1011.2
09 15.09 В 2 н/о н/о +6.6 +3.2 +4 +4 1013.7 1012.8
12 15.09 СВ 3 н/о н/о +6.0 +4.5 +3 +3 1014.7 1013.7
15 15.09 ЮВ 3 н/о н/о +5.6 +3.9 +2 +2 1015.4 1014.4
18 15.09 штиль 0 н/о н/о +2.8 +2.7 +2 +2 1015.9 1014.9
21 15.09 З 3 н/о н/о -0.6 -0.1 -6 -6 1016.3 1015.3
00 16.09 СЗ 3 н/о н/о -1.0 -0.5 -6 -6 1016.4 1015.3
03 16.09 З 2 н/о н/о -1.0 -0.5 104 -5 1018.3 1017.3
06 16.09 СЗ 3 н/о н/о +1.9 +1.6 -3 -3 1017.0 1016.0
09 16.09 З 3 н/о н/о +4.6 +2.5 +1 +1 1017.4 1016.4
12 16.09 СЗ 4 н/о н/о +5.0 +1.7 +1 +1 1017.7 1016.7
15 16.09 ЮЗ 2 н/о н/о +1.7 +1.6 -2 -2 1017.8 1016.8
18 16.09 ЮЗ 3 н/о н/о +1.7 +1.7 -3 -3 1017.3 1016.3
21 16.09 ЮЗ 4 н/о н/о +1.2 +1.5 -4 -4 1016.7 1015.7
00 17.09 ЮЗ 5 н/о н/о +2.4 +2.7 -3 -3 1015.1 1014.1
03 17.09 З 5 н/о н/о +4.4 +4.7 -1 -1 1014.4 1013.4
06 17.09 З 5 н/о н/о +5.7 +6.0 +1 +1 1014.9 1013.9
09 17.09 СВ 3 н/о н/о +4.7 +5.1 +1 +1 1015.3 1014.3
12 17.09 В 3 н/о н/о +5.5 +6.1 +2 +2 1015.1 1014.1
15 17.09 В 7 н/о н/о +5.1 +5.5 -1 -1 1014.3 1013.3
18 17.09 ЮВ 4 н/о н/о +5.6 +4.7 +1 +1 1012.9 1011.9
21 17.09 ЮВ 7 н/о н/о +6.3 +6.4 +1 +1 1010.5 1009.5
00 18.09 ЮВ 7 н/о н/о +6.1 +5.7 +1 +1 1007.9 1006.9
03 18.09 ЮВ 12
{16}
н/о н/о +6.4 +6.3 -0 -0 1005.6 1004.6
06 18.09 ЮВ 12
{17}
н/о н/о +6.0 +5.7 -1 -1 1003.8 1002.9
09 18.09 ЮВ 12
{17}
н/о н/о +6.4 +6.0 -0 -0 1001.0 1000.1
12 18.09 ЮВ 13
{19}
н/о н/о +6.2 +5.9 -1 -1 998.4 997.4
15 18.09 ЮВ 9
{18}
н/о н/о +6.1 +6.1 0 0 997.4 996.4
18 18.09 ЮЗ 3 н/о н/о +5.3 +5.7 +2 +2 998.2 997.2
21 18.09 З 5 н/о н/о +5.5 +5.6 +1 +1 1000.5 999.5
00 19.09 ЮЗ 5 н/о н/о +5.6 +5.9 +1 +1 1002.7 1001.7
03 19.09 ЮЗ 5 н/о н/о +5.6 +5.9 102 +1 1006.3 1005.3
06 19.09 ЮЗ 7 н/о н/о +8.2 +6.8 +4 +4 1006.0 1005.0
09 19.09 Ю 6 н/о н/о +10.6 +7.8 83 +7 1007.7 1006.7
12 19.09 Ю 3 н/о н/о +8.7 +6.7 +6 +6 1006.7 1005.8
15 19.09 Ю 3 н/о н/о +6.3 +6.2 +3 +3 1006.7 1005.7
18 19.09 Ю 5 н/о н/о +6.5 +6.5 +2 +2 1005.5 1004.5
21 19.09 Ю 5 н/о н/о +6.3 +6.3 +2 +2 1004.2 1003.2
00 20.09 ЮВ 3 н/о н/о +6.3 +6.9 104 +3 1003.7 1002.7
03 20.09 Ю 3 н/о н/о +6.7 +7.3 +3 +3 1000.9 999.9
06 20.09 ЮЗ 4 н/о н/о +7.1 +7.7 104 +3 1001.0 1000.0
09 20.09 З 5 н/о н/о +8.0 +7.6 +4 +4 1000.2 999.2
12 20.09 З 7 н/о н/о +7.7 +6.6 93 +3 1002.3 1001.3
15 20.09 ЮЗ 5 н/о н/о +6.4 +6.4 100 +2 1003.7 1002.7
18 20.09 ЮЗ 6 н/о н/о +5.7 +5.8 101 +1 1003.7 1002.7
21 20.09 ЮЗ 4 н/о н/о +5.5 +5.9 103 +1 1003.7 1002.7

 

Местоположение метеостанции Тамбей (Ямало-Ненецкий АО, Россия): широта 71.48 долгота 71.82 высота над уровнем моря 8 м.

В архиве по умолчанию представлена погода в Тамбее за последнюю неделю. Архивные данные за месяц целиком и за предыдущие месяцы, начиная с января 2011 года, Вы можете получить, выбрав интересующий диапазон дат из раскрывающегося списка и нажав кнопку "Ввод!".


*Определитесь, кто Вы:
робот инопланетянин человек

Внимание! Время в таблицах - всемирное. Для получения местного времени необходимо прибавить поправку, которая в Тамбее равна 5 ч.

Смотрите также архив погоды в соседних городах и на ближайших метеорологических станциях:

Погода в Сеяхе (Ямало-Ненецкий АО, Россия) (148 км)
Погода в Имени Попова (Ямало-Ненецкий АО, Россия) (214 км)
Погода в Гыде (Ямало-Ненецкий АО, Россия) (248 км)
Погода в Марресаля (Ямало-Ненецкий АО, Россия) (270 км)
Погода в Антипаюте (Ямало-Ненецкий АО, Россия) (327 км)
Погода в Усть-Каре (Ненецкий АО, Россия) (357 км)
Погода на Острове Диксон (Красноярский край, Россия) (365 км)
Погода в Сопочной Карге (Красноярский край, Россия) (382 км)
Погода в Амдерме (Ненецкий АО, Россия) (419 км)
Погода в Новом Порте (Ямало-Ненецкий АО, Россия) (425 км)

Пояснения к столбцам:

Ветер - указаны скорость ветра в м/с - средняя за 10 мин, порывы в срок и между сроками (в фигурных скобках) и направление, откуда дует ветер: С - северный, СВ - северо-восточный, В - восточный, ЮВ - юго-восточный, Ю - южный, ЮЗ - юго-западный, З - западный, СЗ - северо-западный.
Видимость - горизонтальная дальность видимости в метрах или километрах. При видимости от 1 до 10 км при отсутствии осадков обычно наблюдается дымка, при ухудшении видимости до 1 км и менее - туман. В сухую погоду видимость может ухудшаться дымом, пылью или мглою.
Явления - указаны атмосферные явления, наблюдавшиеся в срок или в последний час перед сроком; фигурными скобками обозначены явления, наблюдавшиеся между сроками (за 1-3 часа до срока); квадратными скобками обозначены град или гололедные отложения с указанием их диаметра в мм.
Облачность - указаны через наклонную черту общая и нижняя облачность в баллах и высота нижней границы облаков в метрах; квадратными скобками обозначены формы облаков: Ci - перистые, Cs - перисто-слоистые, Cc - перисто-кучевые, Ac - высококучевые, As - высокослоистые, Sc - слоисто-кучевые, Ns - слоисто-дождевые, Cu - кучевые, Cb - кучево-дождевые. Подробнее классификацию облаков см. в Атласе облаков (PDF).
T - Температура воздуха - температура, измеренная на высоте 2 м над землей.
Td - Температура точки росы - температура, при понижении до которой содержащийся в воздухе водяной пар достигнет насыщения.
f - Относительная влажность воздуха - влажноcть воздуха, измеренная на высоте 2 м над землей.
Te - Эффективная температура - температура, которую ощущает одетый по сезону человек в тени. Характеристика душности погоды. При расчете учитывается влияние влажности воздуха и скорости ветра на теплоощущения человека.
Tes - Эффективная температура на солнце - температура, которую ощущает человек, с поправкой на солнечный нагрев. Характеристика знойности погоды. Зависит от высоты солнца над горизонтом, облачности и скорости ветра. Ночью, в пасмурную погоду, а также при ветре 12 м/с и более поправка равна нулю.
P - Атмосферное давление - приведенное к уровню моря атмосферное давление.
Po - Атмосферное давление - измеренное на уровне метеостанции атмосферное давление.
Tmin - Минимальная температура - минимум температуры воздуха на высоте 2 м над землей.
Tmax - Максимальная температура - максимум температуры воздуха на высоте 2 м над землей.
R - Количество осадков - Количество выпавших осадков за период времени, мм. При наведении курсора мыши на число - период времени, за который выпало указанное количество осадков.
R24 - Количество осадков - Количество выпавших осадков за 24 часа, мм.
S - Снежный покров - Высота снежного покрова, см. При наведении курсора мыши на число - состояние снежного покрова и степень покрытия местности в баллах.